Estación de Combarbala

Ultimos registro cada 15 minutos 24
Estación Fecha / Hora Temperatura Humedad Lluvia Velocidad Dirección Radiación Presion
24 Combarbala 09-05-2026 05:45 8,6 27 0 0 74 0,6 907,3
23 Combarbala 09-05-2026 05:30 8,5 20,2 0 0 74 0,6 907,1
22 Combarbala 09-05-2026 05:15 8,2 20 0 0 74 0,6 906,9
21 Combarbala 09-05-2026 05:00 7,9 24,5 0 0 74 0,6 906,9
20 Combarbala 09-05-2026 04:45 7,9 21,3 0 0 74 0,6 906,8
19 Combarbala 09-05-2026 04:30 8,5 17,8 0 0 74 0,6 906,9
18 Combarbala 09-05-2026 04:15 9,2 16,4 0 0 74 0,6 906,8
17 Combarbala 09-05-2026 04:00 9,2 17,1 0 0 74 0,6 906,9
16 Combarbala 09-05-2026 03:45 8,4 18,9 0 0 74 0,6 906,8
15 Combarbala 09-05-2026 03:30 9 18 0 0 74 0,6 906,9
14 Combarbala 09-05-2026 03:15 8,7 18 0 0 74 0,6 907,1
13 Combarbala 09-05-2026 03:00 9,2 18,2 0 0 74 0,6 907,3
12 Combarbala 09-05-2026 02:45 9 16,5 0 0 74 0,6 907,4
11 Combarbala 09-05-2026 02:30 10,5 15,3 0 0 74 0,6 907,6
10 Combarbala 09-05-2026 02:15 10,3 17,2 0 0 74 0,6 907,8
9 Combarbala 09-05-2026 02:00 10,7 18,2 0 0 74 0,6 908
8 Combarbala 09-05-2026 01:45 9,8 20,3 0 0 74 0,6 908,3
7 Combarbala 09-05-2026 01:30 9,4 23,9 0 0 74 0,6 908,5
6 Combarbala 09-05-2026 01:15 10,4 22,9 0 0 74 0,6 908,5
5 Combarbala 09-05-2026 01:00 10,5 21,5 0 0 74 0,6 908,6
4 Combarbala 09-05-2026 00:45 10,7 21,8 0 0 74 0,6 908,7
3 Combarbala 09-05-2026 00:30 10,4 23,9 0 0 74 0,6 908,7
2 Combarbala 09-05-2026 00:15 10,8 23,8 0 0 74 0,6 908,9
1 Combarbala 09-05-2026 00:00 10,4 25,5 0 0 74 0,6 909,1